Regional Weather Roundup
Issued by NWS Goodland, KS

Home | Current Version | Previous Version | Graphics & Text | Print | Product List | Glossary On
Versions: 1 2 3 4 5 6 7 8 9 10 11 12 13 14 15 16 17 18 19 20 21 22 23 24 25 26 27 28 29 30 31 32 33 34 35 36 37 38 39 40 41 42 43 44 45 46 47 48 49 50
000
ASUS43 KGLD 220708
RWRGLD

GOODLAND FORECAST AREA HOURLY WEATHER ROUNDUP
NATIONAL WEATHER SERVICE GOODLAND KS
100 AM MDT TUE APR 22 2014

...OFFICIAL OBSERVATIONS...

CITY           SKY/WX    TMP DP  RH WIND       PRES   REMARKS
GOODLAND KS    CLEAR     43  30  60 S8        30.19F
HILL CITY KS   CLEAR     45  38  76 N3        30.18S
IMPERIAL NEB   CLEAR     46  29  51 SE8       30.16F
MCCOOK NEB     CLEAR     46  31  55 E5        30.17S
AKRON CO       CLEAR     50  31  48 S16       30.14F
BURLINGTON CO  PTCLDY    44  31  60 S12       30.18F
LIMON CO       PTCLDY    45  30  55 S8        30.19F
$$

...UNOFFICIAL OBSERVATIONS...

CITY           SKY/WX    TMP DP  RH WIND       PRES   REMARKS
COLBY KS       CLEAR     46  34  61 SE7       30.18F
LENORA KS        N/A     52  32  46 E5          N/A
LEOTI KS         N/A     52  32  47 SE5         N/A
NORTON KS      CLEAR     37  30  75 S3        30.17S
OBERLIN KS     FAIR      48  30  49 SE5       30.17S
SHARON SPRINGS   N/A     44  33  65 S7          N/A
ST FRANCIS KS  CLEAR     45  28  53 SE9       30.16F
WAKEENEY KS      N/A     52  30  43 MISG        N/A
$$



USA.gov is the U.S. government's official web portal to all federal, state and local government web resources and services.